AA3CS-1 Weather Reports


Display with metric or nautical units.
time (UTC)temp
F
wind
direction
speed
MPH
gust
MPH
rain 1hr
in
rain 24hr
in
rain mn
in
humidity
%
barometer
mb
20260510115517 47 0 2.0 4.0 0.00 0.20 0.00 83 1014.4
20260510115037 47 23 3.0 13.0 0.00 0.20 0.00 83 1014.7
20260510114517 47 45 1.0 4.0 0.00 0.20 0.00 84 1014.4
20260510114057 47 0.0 2.0 0.00 0.20 0.00 84 1014.6
20260510113517 47 45 1.0 4.0 0.00 0.20 0.00 84 1014.4
20260510113017 47 45 1.0 5.0 0.00 0.20 0.00 85 1014.4
20260510112517 47 23 1.0 3.0 0.00 0.20 0.00 85 1014.2
20260510112037 47 0.0 3.0 0.00 0.20 0.00 85 1014.2
20260510111517 47 0.0 2.0 0.00 0.20 0.00 85 1014.1
20260510111017 47 23 1.0 4.0 0.00 0.20 0.00 85 1013.9
20260510110538 46 23 1.0 4.0 0.00 0.20 0.00 85 1013.7
20260510110017 46 0.0 2.0 0.00 0.20 0.00 85 1013.7
20260510105517 46 0.0 3.0 0.00 0.20 0.00 85 1013.7
20260510105017 46 0.0 2.0 0.00 0.20 0.00 84 1013.5
20260510104537 46 0.0 2.0 0.00 0.20 0.00 84 1013.5
20260510104017 46 0.0 2.0 0.00 0.20 0.00 84 1013.3
20260510103516 46 23 1.0 2.0 0.00 0.20 0.00 84 1013.2
20260510103037 46 0.0 2.0 0.00 0.20 0.00 83 1013.0
20260510102516 46 0.0 1.0 0.00 0.20 0.00 83 1012.7
20260510102017 46 0.0 2.0 0.00 0.20 0.00 83 1013.1
20260510101516 45 0.0 0.0 0.00 0.20 0.00 83 1012.8
20260510101017 45 0.0 1.0 0.00 0.20 0.00 83 1012.8
20260510100517 45 0.0 4.0 0.00 0.21 0.00 83 1012.8
20260510100017 45 0.0 1.0 0.00 0.21 0.00 84 1012.8
20260510095537 45 0.0 0.0 0.00 0.22 0.00 84 1012.7
20260510095017 45 0.0 2.0 0.00 0.22 0.00 84 1012.8
20260510094517 45 0.0 1.0 0.00 0.22 0.00 84 1012.8
20260510094017 45 0.0 0.0 0.00 0.22 0.00 84 1012.6
20260510093517 45 0.0 0.0 0.00 0.22 0.00 84 1012.6
20260510093017 45 0.0 2.0 0.00 0.22 0.00 83 1012.4
20260510092517 45 0.0 0.0 0.00 0.22 0.00 83 1012.3
20260510092017 46 0.0 0.0 0.00 0.22 0.00 83 1012.3
20260510091517 46 0.0 0.0 0.00 0.22 0.00 83 1012.3
20260510091016 46 0.0 2.0 0.00 0.22 0.00 83 1012.1
20260510090517 46 0.0 0.0 0.00 0.22 0.00 81 1011.9
20260510090037 46 0.0 2.0 0.00 0.22 0.00 80 1011.8
20260510085517 47 0.0 2.0 0.00 0.22 0.00 81 1011.8
20260510085017 47 68 1.0 3.0 0.00 0.22 0.00 80 1011.6
20260510084516 47 0.0 3.0 0.00 0.22 0.00 81 1011.5
20260510084016 47 45 1.0 4.0 0.00 0.22 0.00 82 1011.4
20260510083556 47 45 1.0 4.0 0.00 0.22 0.00 81 1011.3
20260510083017 47 45 1.0 5.0 0.00 0.22 0.00 82 1011.4
20260510082517 47 45 2.0 4.0 0.00 0.22 0.00 82 1011.2
20260510082016 48 23 1.0 2.0 0.00 0.22 0.00 82 1011.3
20260510081516 48 0.0 3.0 0.00 0.22 0.00 83 1011.4
20260510081037 48 23 1.0 4.0 0.00 0.22 0.00 83 1011.3
20260510080557 48 315 1.0 4.0 0.00 0.22 0.00 83 1011.4
20260510080017 49 315 1.0 5.0 0.00 0.22 0.00 85 1011.2
20260510075517 49 315 1.0 4.0 0.00 0.22 0.00 85 1011.3
20260510075017 49 68 1.0 4.0 0.00 0.22 0.00 85 1011.2
20260510074516 50 23 2.0 8.0 0.00 0.22 0.00 85 1010.9
20260510074017 50 23 1.0 4.0 0.00 0.22 0.00 87 1010.9
20260510073517 50 23 1.0 4.0 0.00 0.23 0.00 87 1010.9
20260510073016 50 315 2.0 4.0 0.00 0.24 0.00 88 1010.9
20260510072516 51 0 1.0 4.0 0.00 0.25 0.00 89 1010.9
20260510072016 51 0 1.0 4.0 0.00 0.27 0.00 90 1010.7
20260510071517 51 45 1.0 4.0 0.00 0.28 0.00 90 1010.6
20260510071016 51 338 1.0 4.0 0.00 0.29 0.00 90 1010.5
20260510070517 51 338 2.0 6.0 0.00 0.32 0.00 91 1010.4
20260510070037 51 338 1.0 5.0 0.00 0.32 0.00 92 1010.4
20260510065516 51 293 1.0 6.0 0.00 0.36 0.00 92 1010.2
20260510065016 51 0.0 2.0 0.00 0.39 0.00 92 1010.1
20260510064517 51 270 2.0 4.0 0.00 0.40 0.00 92 1010.0
20260510064017 51 270 2.0 4.0 0.00 0.40 0.00 93 1009.9
20260510063517 50 270 1.0 3.0 0.00 0.40 0.00 91 1009.7
20260510063016 51 248 1.0 2.0 0.00 0.41 0.00 92 1009.9
20260510062516 51 0.0 2.0 0.00 0.41 0.00 92 1009.8
20260510062036 51 0.0 1.0 0.00 0.42 0.00 91 1009.6
20260510061516 51 0.0 2.0 0.00 0.42 0.00 91 1009.6
20260510061037 51 0.0 0.0 0.00 0.43 0.00 91 1009.6
20260510060517 52 0.0 1.0 0.00 0.45 0.00 91 1009.7
20260510060017 52 248 1.0 2.0 0.00 0.45 0.00 91 1009.7
20260510055516 52 158 1.0 4.0 0.00 0.46 0.00 91 1009.7
20260510055037 52 0.0 2.0 0.00 0.46 0.00 91 1009.8
20260510054516 52 0.0 2.0 0.00 0.46 0.00 91 1009.7
20260510054017 52 158 1.0 3.0 0.00 0.47 0.00 90 1009.6
20260510053536 52 0.0 2.0 0.00 0.48 0.00 90 1009.5
20260510053016 52 0.0 2.0 0.00 0.49 0.00 90 1009.5
20260510052516 52 158 1.0 5.0 0.00 0.49 0.00 90 1009.3
20260510052016 52 158 1.0 6.0 0.00 0.49 0.00 90 1009.2
20260510051537 52 135 2.0 5.0 0.00 0.49 0.00 91 1009.3
20260510051017 52 180 2.0 5.0 0.00 0.50 0.00 90 1009.3
20260510050517 52 180 3.0 10.0 0.00 0.53 0.00 91 1009.3
20260510050016 52 158 2.0 6.0 0.00 0.56 0.00 91 1009.3
20260510045516 52 158 1.0 7.0 0.00 0.59 0.00 91 1009.0
20260510045016 52 135 1.0 7.0 0.00 0.63 0.00 91 1008.8
20260510044516 52 135 1.0 3.0 0.00 0.64 0.00 91 1008.8
20260510044016 51 135 1.0 4.0 0.00 0.64 0.00 91 1008.8
20260510043516 51 158 1.0 2.0 0.00 0.65 0.00 90 1008.8
20260510043016 52 158 1.0 2.0 0.00 0.65 0.00 90 1008.9
20260510042517 52 158 2.0 4.0 0.00 0.66 0.00 90 1008.8
20260510042016 52 158 1.0 2.0 0.00 0.66 0.00 90 1008.8
20260510041516 52 158 1.0 4.0 0.00 0.66 0.00 90 1008.8
20260510041016 52 158 2.0 4.0 0.00 0.66 0.00 90 1008.8
20260510040516 53 158 1.0 4.0 0.00 0.66 0.00 89 1008.9
20260510040016 53 0.0 2.0 0.00 0.67 0.67 89 1009.0
20260510035556 53 158 1.0 2.0 0.00 0.68 0.67 89 1009.0
20260510035016 54 0.0 0.0 0.01 0.68 0.67 90 1008.9
20260510034517 54 158 1.0 2.0 0.01 0.68 0.67 89 1008.8
20260510034016 54 158 3.0 6.0 0.01 0.68 0.67 89 1008.7
20260510033517 54 315 4.0 10.0 0.01 0.68 0.67 89 1009.1
20260510033017 54 315 1.0 6.0 0.01 0.68 0.67 90 1008.8
20260510032517 54 0.0 1.0 0.01 0.68 0.67 90 1008.3
20260510032036 53 113 2.0 4.0 0.01 0.68 0.67 90 1008.2
20260510031516 53 158 2.0 4.0 0.01 0.68 0.67 91 1008.4
20260510031016 53 158 1.0 2.0 0.01 0.68 0.67 91 1008.6
20260510030516 53 0.0 2.0 0.01 0.69 0.67 90 1008.4
20260510030016 53 0.0 2.0 0.01 0.69 0.67 90 1008.4
20260510025516 53 0.0 2.0 0.01 0.69 0.67 91 1008.7
20260510025016 53 0.0 3.0 0.00 0.68 0.66 91 1008.9
20260510024516 53 0.0 1.0 0.00 0.68 0.66 91 1009.0
20260510024017 53 180 1.0 2.0 0.00 0.68 0.66 91 1008.8
20260510023536 53 0.0 0.0 0.00 0.68 0.66 92 1008.8
20260510023016 53 0.0 1.0 0.00 0.68 0.66 92 1008.7
20260510022537 53 0.0 0.0 0.00 0.68 0.66 92 1008.5
20260510022016 53 0.0 2.0 0.00 0.69 0.66 92 1008.2
20260510021517 53 0.0 2.0 0.00 0.69 0.66 92 1008.0
20260510021036 53 180 1.0 2.0 0.00 0.69 0.66 92 1007.9
20260510020517 53 0.0 2.0 0.00 0.70 0.66 92 1007.8
20260510020016 53 0.0 2.0 0.00 0.70 0.66 92 1007.7
20260510015516 53 0.0 0.0 0.00 0.70 0.66 92 1007.8
20260510015017 53 0.0 0.0 0.00 0.70 0.66 92 1007.7
20260510014557 53 0.0 0.0 0.00 0.71 0.66 91 1007.6
20260510014017 53 0.0 0.0 0.00 0.71 0.66 91 1007.5
20260510013536 53 0.0 0.0 0.00 0.71 0.66 90 1007.6
20260510013016 53 0.0 0.0 0.00 0.71 0.66 90 1007.4
20260510012516 53 0.0 0.0 0.00 0.72 0.66 90 1007.4
20260510012056 53 0.0 0.0 0.00 0.72 0.66 90 1007.2
20260510011516 53 0.0 0.0 0.00 0.72 0.66 90 1007.1
20260510011056 53 0.0 0.0 0.00 0.72 0.66 89 1007.1
20260510010537 53 0.0 2.0 0.00 0.73 0.66 89 1007.1
20260510010016 54 0.0 2.0 0.01 0.73 0.66 90 1007.0
20260510005537 54 0.0 2.0 0.02 0.73 0.66 90 1007.0
20260510005016 54 180 2.0 5.0 0.03 0.73 0.66 89 1007.0
20260510004516 54 180 2.0 7.0 0.04 0.73 0.66 89 1007.2
20260510004016 54 203 1.0 4.0 0.05 0.74 0.66 89 1007.2
20260510003516 54 0.0 2.0 0.08 0.74 0.66 89 1007.3
20260510003016 54 0.0 2.0 0.14 0.74 0.66 89 1007.2
20260510002516 54 0.0 3.0 0.19 0.74 0.66 88 1007.2
20260510002016 54 0.0 2.0 0.19 0.75 0.66 88 1007.1
20260510001516 54 0.0 3.0 0.19 0.75 0.66 88 1007.2
20260510001016 54 225 1.0 4.0 0.19 0.76 0.66 88 1007.4
20260510000516 54 248 5.0 15.0 0.19 0.76 0.66 87 1007.5
20260510000016 54 270 8.0 18.0 0.18 0.75 0.65 87 1007.3
20260509235516 54 293 7.0 12.0 0.17 0.75 0.63 87 1007.5
20260509235016 54 315 7.0 14.0 0.16 0.74 0.63 87 1007.4
20260509234516 54 293 8.0 16.0 0.15 0.74 0.62 86 1007.3
20260509234036 55 315 7.0 14.0 0.14 0.73 0.61 84 1007.3
20260509233516 55 315 11.0 21.0 0.11 0.71 0.58 82 1007.5
20260509233016 58 315 14.0 31.0 0.05 0.65 0.52 74 1007.3
20260509232536 64 270 12.0 29.0 0.00 0.61 0.47 61 1007.1
20260509232016 66 203 4.0 10.0 0.00 0.61 0.47 58 1006.1
20260509231536 66 203 3.0 9.0 0.00 0.61 0.47 57 1005.7
20260509231036 66 180 4.0 10.0 0.00 0.61 0.47 57 1005.6
20260509230516 66 203 5.0 16.0 0.00 0.61 0.47 58 1005.5
20260509230016 66 225 5.0 14.0 0.00 0.61 0.47 57 1005.4
20260509225516 66 203 4.0 13.0 0.00 0.61 0.47 57 1005.4
20260509225016 66 203 4.0 10.0 0.00 0.61 0.47 57 1005.4
20260509224516 66 180 5.0 15.0 0.00 0.62 0.47 57 1005.4
20260509224016 66 180 6.0 13.0 0.00 0.62 0.47 56 1005.3
20260509223536 67 203 7.0 19.0 0.00 0.62 0.47 56 1005.2
20260509223016 67 203 6.0 13.0 0.00 0.62 0.47 55 1005.2
20260509222616 66 203 5.0 11.0 0.00 0.62 0.47 56 1005.3
20260509222016 67 180 7.0 19.0 0.00 0.62 0.47 54 1005.4
20260509221516 67 203 6.0 17.0 0.00 0.62 0.47 53 1005.3
20260509221017 68 180 7.0 18.0 0.00 0.62 0.47 54 1005.3
20260509220516 68 180 7.0 20.0 0.00 0.62 0.47 54 1005.3
20260509220016 69 203 8.0 23.0 0.00 0.62 0.47 52 1005.4
20260509215516 69 180 5.0 17.0 0.00 0.62 0.47 54 1005.5
20260509215016 69 203 6.0 15.0 0.00 0.62 0.47 52 1005.5
20260509214516 69 203 6.0 18.0 0.00 0.62 0.47 55 1005.4
20260509214016 69 180 10.0 20.0 0.00 0.62 0.47 53 1005.3
20260509213536 69 180 5.0 13.0 0.00 0.62 0.47 55 1005.4
20260509213016 69 180 5.0 13.0 0.00 0.62 0.47 54 1005.4
20260509212516 69 203 6.0 14.0 0.00 0.62 0.47 53 1005.6
20260509212036 69 180 5.0 12.0 0.00 0.62 0.47 54 1005.6
20260509211516 68 203 6.0 15.0 0.00 0.62 0.47 52 1005.6
20260509211036 68 203 8.0 15.0 0.00 0.62 0.47 53 1005.8
20260509210515 68 203 7.0 18.0 0.00 0.62 0.47 55 1005.9
20260509210016 68 180 7.0 16.0 0.00 0.62 0.47 53 1006.0
20260509205516 68 180 9.0 20.0 0.00 0.62 0.47 53 1006.1
20260509205016 69 203 4.0 14.0 0.00 0.62 0.47 54 1006.2
20260509204516 69 180 6.0 21.0 0.00 0.62 0.47 57 1006.3
20260509204016 69 158 4.0 12.0 0.00 0.62 0.47 56 1006.2
20260509203516 68 180 3.0 10.0 0.00 0.62 0.47 56 1006.2
20260509203016 68 180 7.0 15.0 0.00 0.62 0.47 53 1006.3
20260509202515 68 203 5.0 14.0 0.00 0.62 0.47 58 1006.5
20260509202015 68 203 6.0 16.0 0.00 0.62 0.47 58 1006.5
20260509201516 68 180 6.0 13.0 0.00 0.62 0.47 56 1006.5
20260509201016 68 203 5.0 12.0 0.00 0.62 0.47 58 1006.7
20260509200516 68 203 7.0 18.0 0.00 0.63 0.47 55 1006.9
20260509200016 68 180 6.0 14.0 0.00 0.63 0.47 60 1007.1
20260509195516 68 180 5.0 12.0 0.00 0.64 0.47 60 1006.9
20260509195016 67 225 6.0 13.0 0.00 0.64 0.47 59 1006.9
20260509194536 67 203 8.0 18.0 0.00 0.64 0.47 57 1007.0
20260509194015 67 180 6.0 19.0 0.00 0.65 0.47 59 1006.9
20260509193516 67 203 6.0 14.0 0.00 0.66 0.47 61 1007.0
20260509193036 67 180 7.0 20.0 0.00 0.66 0.47 60 1007.2
20260509192516 68 180 6.0 19.0 0.00 0.67 0.47 59 1007.1
20260509192016 67 225 4.0 12.0 0.00 0.67 0.47 58 1007.3
20260509191516 67 248 6.0 16.0 0.00 0.67 0.47 59 1007.4
20260509191016 66 203 5.0 12.0 0.00 0.67 0.47 61 1007.5
20260509190516 66 225 5.0 12.0 0.00 0.67 0.47 57 1007.5
20260509190015 66 225 3.0 8.0 0.00 0.67 0.47 63 1007.6
20260509185515 65 225 3.0 8.0 0.00 0.67 0.47 61 1007.5
20260509185016 65 225 4.0 11.0 0.00 0.67 0.47 60 1007.5
20260509184516 65 248 5.0 13.0 0.00 0.67 0.47 60 1007.4
20260509184016 65 203 4.0 12.0 0.00 0.67 0.47 60 1007.5
20260509183515 65 203 5.0 11.0 0.00 0.67 0.47 60 1007.4
20260509183015 65 180 6.0 17.0 0.00 0.67 0.47 62 1007.4
20260509182516 65 180 5.0 12.0 0.00 0.67 0.47 64 1007.5
20260509182015 64 180 6.0 18.0 0.00 0.67 0.47 63 1007.5
20260509181516 64 203 5.0 15.0 0.00 0.67 0.47 63 1007.6
20260509181015 64 203 4.0 14.0 0.00 0.67 0.47 63 1007.5
20260509180515 64 180 5.0 12.0 0.00 0.67 0.47 67 1007.5
20260509180016 64 225 3.0 6.0 0.00 0.68 0.47 62 1007.4
20260509175515 64 203 4.0 11.0 0.00 0.69 0.47 66 1007.6
20260509175036 64 180 4.0 12.0 0.00 0.69 0.47 65 1007.6
20260509174516 64 203 4.0 12.0 0.00 0.70 0.47 64 1007.8
20260509174035 64 180 4.0 10.0 0.00 0.70 0.47 69 1007.8
20260509173536 64 158 3.0 11.0 0.00 0.70 0.47 66 1007.9
20260509173016 64 225 3.0 9.0 0.00 0.70 0.47 66 1007.8
20260509172515 64 225 3.0 10.0 0.00 0.70 0.47 69 1007.8
20260509172015 63 180 4.0 9.0 0.00 0.70 0.47 65 1007.6
20260509171515 63 225 5.0 13.0 0.00 0.70 0.47 64 1007.5
20260509171015 63 203 5.0 11.0 0.00 0.70 0.47 67 1007.6
20260509170516 63 180 8.0 17.0 0.00 0.70 0.47 64 1007.6
20260509170015 62 203 3.0 11.0 0.00 0.70 0.47 69 1007.4
20260509165516 62 248 3.0 7.0 0.00 0.70 0.47 68 1007.6
20260509165016 62 203 4.0 8.0 0.00 0.70 0.47 68 1007.6
20260509164517 62 203 4.0 10.0 0.00 0.70 0.47 68 1007.6
20260509164038 62 180 2.0 8.0 0.00 0.70 0.47 74 1007.8
20260509163518 62 180 3.0 8.0 0.00 0.70 0.47 70 1007.9
20260509163018 62 225 2.0 5.0 0.00 0.70 0.47 71 1008.0
20260509162518 62 203 3.0 11.0 0.00 0.70 0.47 67 1008.0
20260509162018 62 180 3.0 7.0 0.00 0.70 0.47 71 1008.0
20260509161517 61 203 2.0 8.0 0.00 0.70 0.47 69 1008.0
20260509161017 61 270 3.0 10.0 0.00 0.70 0.47 70 1007.9
20260509160517 61 203 3.0 8.0 0.00 0.70 0.47 72 1008.0
20260509160017 61 203 5.0 13.0 0.00 0.70 0.47 69 1008.0
20260509155517 61 180 6.0 12.0 0.00 0.70 0.47 71 1008.0
20260509155017 61 180 4.0 11.0 0.00 0.70 0.47 73 1008.0
20260509154517 60 270 3.0 8.0 0.00 0.70 0.47 74 1008.0
20260509154017 61 180 2.0 7.0 0.00 0.70 0.47 78 1008.0
20260509153517 60 180 3.0 7.0 0.00 0.70 0.47 74 1008.0
20260509153017 59 248 3.0 8.0 0.00 0.70 0.47 76 1008.0
20260509152538 60 203 3.0 12.0 0.00 0.70 0.47 78 1007.9
20260509152017 59 270 2.0 8.0 0.00 0.70 0.47 81 1007.9
20260509151517 58 293 2.0 5.0 0.00 0.70 0.47 83 1007.9
20260509151017 57 180 2.0 5.0 0.00 0.70 0.47 82 1007.9
20260509150517 57 225 3.0 14.0 0.00 0.70 0.47 79 1007.9
20260509150017 58 248 3.0 8.0 0.00 0.70 0.47 79 1007.8
20260509145517 59 180 3.0 10.0 0.00 0.70 0.47 79 1007.8
20260509145017 59 203 4.0 10.0 0.00 0.70 0.47 81 1007.7
20260509144517 59 203 4.0 12.0 0.00 0.70 0.47 82 1007.7
20260509144017 58 180 2.0 7.0 0.00 0.70 0.47 85 1007.7
20260509143517 57 180 2.0 8.0 0.00 0.70 0.47 87 1007.7
20260509143017 56 180 3.0 6.0 0.00 0.70 0.47 89 1007.6
20260509142538 55 203 2.0 7.0 0.00 0.70 0.47 89 1007.5
20260509142017 55 203 1.0 4.0 0.00 0.70 0.47 89 1007.5
20260509141517 55 203 3.0 9.0 0.00 0.70 0.47 90 1007.6
20260509141017 54 203 2.0 8.0 0.00 0.70 0.47 91 1007.7
20260509140518 54 180 2.0 7.0 0.00 0.70 0.47 91 1007.6
20260509140017 54 180 2.0 7.0 0.00 0.70 0.47 91 1007.6
20260509135517 54 180 1.0 5.0 0.00 0.70 0.47 92 1007.6
20260509135017 54 180 1.0 5.0 0.00 0.70 0.47 91 1007.6
20260509134517 54 180 3.0 7.0 0.00 0.70 0.47 92 1007.5
20260509134017 53 180 2.0 5.0 0.00 0.70 0.47 92 1007.5
20260509133517 53 158 2.0 6.0 0.00 0.70 0.47 92 1007.5
20260509133017 53 180 2.0 7.0 0.00 0.70 0.47 93 1007.5
20260509132517 53 180 2.0 7.0 0.00 0.70 0.47 92 1007.6
20260509132017 53 180 3.0 7.0 0.00 0.70 0.47 92 1007.6
20260509131517 53 180 3.0 7.0 0.00 0.70 0.47 93 1007.6
20260509131017 52 180 2.0 5.0 0.00 0.70 0.47 93 1007.6
20260509130517 52 180 2.0 7.0 0.00 0.70 0.47 93 1007.6
20260509130017 52 180 3.0 8.0 0.00 0.70 0.47 93 1007.7
20260509125517 52 180 1.0 3.0 0.00 0.70 0.47 93 1007.8
20260509125017 52 180 2.0 6.0 0.00 0.70 0.47 93 1007.8
20260509124517 52 180 2.0 8.0 0.00 0.70 0.47 93 1007.9
20260509124017 52 180 1.0 5.0 0.00 0.70 0.47 93 1007.9
20260509123517 52 180 1.0 4.0 0.00 0.70 0.47 93 1008.0
20260509123017 52 158 4.0 8.0 0.00 0.70 0.47 93 1007.9
20260509122517 52 180 3.0 5.0 0.00 0.70 0.47 93 1008.0
20260509122037 52 180 2.0 6.0 0.00 0.70 0.47 93 1008.0
20260509121517 52 180 1.0 5.0 0.00 0.70 0.47 93 1008.0
20260509121058 51 203 2.0 6.0 0.00 0.70 0.47 94 1008.0
20260509120538 51 180 2.0 7.0 0.00 0.70 0.47 94 1008.0
20260509120017 51 180 2.0 6.0 0.00 0.70 0.47 94 1008.0